Location: Silverdale
(47.6506°N, 122.6941°W)
Time: 01:07:57
(UTC+00:00)

A-11 Canister half - Pass Details

Date: 05 October 2022
Orbit: 1524 x 1685 km, 47.3° (Epoch: 05 December)

Event Time Altitude Azimuth Distance (km) Brightness Sun altitude
Rises 07:04:34 0° 286° (WNW) 4,750 11.9 -45.5°
Reaches altitude 10° 07:09:30 10° 264° (W) 3,794 11.1 -45.8°
Enters shadow 07:10:18 11° 260° (W) 3,691 11.0 -45.8°
